[[{"header":{"parameterUnit":"m.s-1","parameterCategory":1,"la1":30.2991,"la2":30.254,"lo1":-89.0895,"lo2":-89.0444,"dy":0.0017,"dx":0.0017,"nx":28,"ny":28,"refTime":"2024-04-05T09:00:00:Z","depth":0,"parameterNumber":2,"parameterNumberName":"U-component_of_WINDS"},"data":[0,0,0,0,0,0,0,0,0,0,0,0,0,0,0,0,0,0,0,0,0,0,0,0,0,0,0,0,0,0,0,0,0,0,0,0,0,0,0,0,0,0,0,0,0,0,0,0,0,0,0,0,0,0,0,0,0,0,-5.1644,-5.1644,0,-5.161,-5.161,-5.161,-5.1413,-5.1409,-5.1404,-5.14,-5.1369,-5.1373,-5.1376,0,0,0,0,0,0,0,0,0,0,0,0,0,-5.1544,-5.1546,-5.1644,-5.1644,-5.1644,-5.161,-5.161,-5.1609,-5.1414,-5.1409,-5.1403,-5.1397,-5.1368,-5.1372,-5.1377,0,0,0,0,0,0,0,0,0,0,0,0,0,-5.1557,-5.1547,-5.1645,-5.1542,-5.1533,-5.161,-5.161,-5.1609,-5.1416,-5.1408,-5.1401,-5.1395,-5.1367,-5.1372,-5.1377,-5.1553,0,0,-5.1394,-5.1396,0,0,0,0,0,0,0,0,-5.1556,-5.156,-5.1558,-5.1549,-5.1539,-5.1509,-5.1563,-5.1591,-5.1417,-5.146,-5.1399,-5.1391,-5.1422,-5.1422,-5.1432,-5.1551,-5.155,-5.1394,-5.1398,-5.14,-5.1401,0,0,0,0,0,0,0,-5.1555,-5.1561,-5.1631,-5.1558,-5.1546,-5.1499,-5.1493,-5.1567,-5.1481,-5.1456,-5.1442,-5.144,-5.1415,-5.1427,-5.1429,-5.1549,-5.1394,-5.1399,-5.1402,-5.1404,-5.1809,-5.1816,0,0,0,0,0,0,-5.1568,-5.1561,-5.1632,-5.163,-5.153,-5.1506,-5.15,-5.1526,-5.148,-5.1466,-5.1446,-5.1431,-5.1421,-5.1423,-5.1428,-5.1627,-5.14,-5.1405,-5.1408,-5.1801,-5.181,-5.1819,0,0,0,0,0,0,-5.1567,-5.1577,-5.1633,-5.1592,-5.1595,-5.1516,-5.1546,-5.1529,-5.154,-5.1472,-5.1456,-5.1473,-5.1416,-5.142,-5.1522,-5.1624,-5.1407,-5.1412,-5.1792,-5.1804,-5.1814,-5.203,0,0,0,0,0,0,-5.1565,-5.1577,-5.1642,-5.1595,-5.1598,-5.1728,-5.1553,-5.1533,-5.1549,-5.1529,-5.1494,-5.1481,-5.141,-5.1515,-5.1528,-5.1627,-5.1417,-5.1783,-5.1798,-5.1811,-5.2014,-5.2048,-5.2077,0,0,0,0,0,-5.1562,-5.1706,-5.1647,-5.1656,-5.1678,-5.1734,-5.1737,-5.1651,-5.1558,-5.1623,-5.158,-5.1482,-5.1611,-5.1527,-5.1539,-5.1643,-5.1776,-5.1793,-5.181,-5.2,-5.2041,-5.2076,0,0,0,0,0,0,-5.177,-5.1698,-5.1631,-5.1764,-5.1757,-5.1701,-5.178,-5.1698,-5.1718,-5.1698,-5.1592,-5.1586,-5.1704,-5.1683,-5.1591,-5.1809,-5.1677,-5.1697,-5.1817,-5.1856,-5.1887,-5.1888,-5.1421,0,0,0,0,0,-5.1831,-5.1882,-5.1817,-5.194,-5.194,-5.1862,-5.1883,-5.1817,-5.1806,-5.1802,-5.1766,-5.176,-5.1798,-5.1826,-5.1858,-5.2011,-5.1999,-5.2087,-5.2119,-5.2145,-5.2163,-5.224,-5.2278,-5.1874,-5.1874,-5.1873,0,0,-5.1958,-5.1925,-5.1964,-5.1981,-5.1967,-5.2023,-5.186,-5.1926,-5.1966,-5.1813,-5.1905,-5.188,-5.1866,-5.1993,-5.2047,-5.198,-5.2272,-5.2167,-5.2188,-5.2192,-5.2261,-5.23,-5.2334,-5.1885,-5.1883,-5.1881,0,0,-5.2217,-5.2198,-5.2297,-5.2287,-5.2267,-5.2214,-5.2238,-5.2195,-5.2171,-5.2262,-5.2148,-5.2195,-5.2264,-5.2258,-5.2265,-5.2521,-5.2431,-5.2535,-5.2698,-5.2774,-5.2806,-5.2834,-5.2923,-5.2957,-5.2553,-5.2554,-5.2554,0,-5.2378,-5.2455,-5.2359,-5.2432,-5.2442,-5.2304,-5.2404,-5.2399,-5.2393,-5.2403,-5.2327,-5.241,-5.2391,-5.2514,-5.2576,-5.2587,-5.2611,-5.2537,-5.2809,-5.2836,-5.286,-5.2944,-5.2978,-5.2566,-5.2565,-5.2563,-5.2562,0,-5.2652,-5.2708,-5.2791,-5.2785,-5.2805,-5.2892,-5.2809,-5.2842,-5.2775,-5.273,-5.2824,-5.2797,-5.282,-5.2845,-5.2781,-5.2959,-5.2917,-5.2828,-5.2692,-5.2913,-5.299,-5.3021,-5.2584,-5.258,-5.2576,-5.2573,0,0,-5.3041,-5.298,-5.3012,-5.3006,-5.2974,-5.3016,-5.3096,-5.3117,-5.3145,-5.3146,-5.321,-5.3272,-5.3187,-5.3195,-5.3129,-5.3197,-5.3399,-5.3098,-5.3096,-5.3153,-5.3591,-5.3657,-5.3696,-5.334,-5.3346,-5.3351,-5.3591,0,-5.3287,-5.3417,-5.3333,-5.3478,-5.3527,-5.3396,-5.3466,-5.3455,-5.3415,-5.3452,-5.3409,-5.3453,-5.334,-5.3343,-5.3404,-5.3362,-5.3485,-5.3343,-5.3398,-5.3402,-5.3403,-5.3736,-5.3807,-5.4035,-5.3621,-5.3626,-5.363,0,-5.3591,-5.3601,-5.375,-5.3706,-5.3724,-5.3788,-5.3799,-5.3836,-5.3821,-5.3787,-5.3796,-5.3713,-5.3788,-5.3658,-5.376,-5.3666,-5.3684,-5.3666,-5.3673,-5.3673,-5.3528,-5.3744,-5.4106,-5.414,-5.3677,-5.3673,-5.367,0,-5.3856,-5.3908,-5.4003,-5.4003,-5.3955,-5.4003,-5.3986,-5.3963,-5.398,-5.3991,-5.4001,-5.4022,-5.4033,-5.4052,-5.3977,-5.3888,-5.4089,-5.3952,-5.4063,-5.4065,-5.4109,-5.4107,-5.4478,-5.4126,-5.4126,-5.4125,-5.4124,0,-5.4138,-5.4234,-5.4121,-5.4179,-5.4282,-5.4186,-5.4291,-5.426,-5.4241,-5.4292,-5.4182,-5.4232,-5.4131,-5.4172,-5.4114,-5.4207,-5.4214,-5.4189,-5.4172,-5.4197,-5.42,-5.4206,-5.4187,-5.4134,-5.4132,-5.413,-5.4129,0,-5.4451,-5.4379,-5.4473,-5.442,-5.4409,-5.4487,-5.4441,-5.4494,-5.4447,-5.4512,-5.4522,-5.4449,-5.449,-5.4418,-5.4452,-5.4413,-5.4542,-5.4502,-5.4546,-5.4533,-5.4647,-5.4637,-5.5032,-5.5079,-5.47,-5.4704,-5.4707,0,-5.4634,-5.4704,-5.4657,-5.4682,-5.467,-5.4712,-5.4728,-5.4636,-5.4658,-5.4645,-5.4699,-5.4731,-5.4751,-5.4824,-5.4774,-5.4799,-5.4757,-5.4894,-5.476,-5.4783,-5.4756,-5.4752,-5.4758,-5.4921,-5.4926,-5.493,-5.4933,0,-5.4966,-5.4927,-5.4953,-5.4967,-5.4989,-5.4997,-5.4996,-5.5024,-5.4926,-5.4956,-5.4996,-5.5012,-5.5044,-5.5077,-5.509,-5.5073,-5.4988,-5.4976,-5.5002,-5.5027,-5.5049,-5.5036,-5.4619,-5.4966,-5.4963,-5.4961,-5.4959,-5.4957,-5.5217,-5.5272,-5.5247,-5.528,-5.527,-5.5272,-5.5317,-5.5275,-5.5306,-5.5323,-5.5268,-5.5321,-5.5303,-5.531,-5.5303,-5.5344,-5.5283,-5.5322,-5.5331,-5.5342,-5.5359,-5.5045,-5.5346,-5.5345,-5.5344,-5.5343,-5.5342,0,-5.5541,-5.5518,-5.5549,-5.5551,-5.5577,-5.5492,-5.5487,-5.5515,-5.5562,-5.5552,-5.5573,-5.5619,-5.565,-5.5603,-5.5626,-5.5668,-5.5629,-5.5677,-5.5672,-5.5669,-5.5413,-5.5386,-5.5708,-5.5708,-5.5708,-5.5708,-5.5708,-5.5707,-5.5712,-5.58,-5.5758,-5.584,-5.5816,-5.5865,-5.5869,-5.587,-5.5861,-5.5916,-5.594,-5.5909,-5.5884,-5.5905,-5.593,-5.5915,-5.5928,-5.599,-5.5962,-5.5723,-5.5687,-5.5653,-5.5627,-5.5994,-5.5994,-5.6213,-5.6215,-5.6217]},{"header":{"parameterUnit":"m.s-1","parameterCategory":1,"la1":30.2991,"la2":30.254,"lo1":-89.0895,"lo2":-89.0444,"dy":0.0017,"dx":0.0017,"nx":28,"ny":28,"refTime":"2024-04-05T09:00:00:Z","depth":0,"parameterNumber":3,"parameterNumberName":"V-component_of_WINDS"},"data":[0,0,0,0,0,0,0,0,0,0,0,0,0,0,0,0,0,0,0,0,0,0,0,0,0,0,0,0,0,0,0,0,0,0,0,0,0,0,0,0,0,0,0,0,0,0,0,0,0,0,0,0,0,0,0,0,0,0,-2.2855,-2.2855,0,-2.2901,-2.2901,-2.2902,-2.2896,-2.2895,-2.2894,-2.2893,-2.2938,-2.294,-2.2942,0,0,0,0,0,0,0,0,0,0,0,0,0,-2.2757,-2.2759,-2.2855,-2.2855,-2.2856,-2.2901,-2.2901,-2.2902,-2.2896,-2.2895,-2.2894,-2.2893,-2.2938,-2.294,-2.2942,0,0,0,0,0,0,0,0,0,0,0,0,0,-2.2801,-2.2759,-2.2855,-2.2858,-2.2859,-2.2901,-2.2901,-2.2902,-2.2896,-2.2895,-2.2894,-2.2893,-2.2937,-2.294,-2.2943,-2.2983,0,0,-2.2951,-2.2953,0,0,0,0,0,0,0,0,-2.2798,-2.2804,-2.2857,-2.2858,-2.2859,-2.2891,-2.2883,-2.2929,-2.2896,-2.2882,-2.2893,-2.2892,-2.2924,-2.2927,-2.2939,-2.2985,-2.2987,-2.2952,-2.2953,-2.2955,-2.2955,0,0,0,0,0,0,0,-2.2795,-2.2802,-2.2873,-2.2858,-2.2859,-2.2856,-2.2861,-2.2892,-2.2908,-2.2883,-2.2883,-2.2888,-2.2924,-2.2936,-2.294,-2.2988,-2.2952,-2.2954,-2.2956,-2.2957,-2.3067,-2.3068,0,0,0,0,0,0,-2.2792,-2.28,-2.2871,-2.2874,-2.2825,-2.2859,-2.2864,-2.2882,-2.2908,-2.2911,-2.2889,-2.2888,-2.2931,-2.2936,-2.2941,-2.2988,-2.2955,-2.2957,-2.2959,-2.3065,-2.3067,-2.3068,0,0,0,0,0,0,-2.279,-2.2798,-2.2869,-2.2837,-2.2846,-2.2862,-2.2882,-2.2884,-2.2896,-2.2913,-2.2915,-2.2899,-2.2931,-2.2937,-2.2972,-2.299,-2.2959,-2.2961,-2.3064,-2.3066,-2.3067,-2.3084,0,0,0,0,0,0,-2.2787,-2.2798,-2.2814,-2.2837,-2.2848,-2.2901,-2.2883,-2.2885,-2.2901,-2.2899,-2.2922,-2.2925,-2.293,-2.2968,-2.2975,-2.2993,-2.2963,-2.3062,-2.3065,-2.3067,-2.3082,-2.3086,-2.3089,0,0,0,0,0,-2.2784,-2.2817,-2.2815,-2.2824,-2.2869,-2.2902,-2.2908,-2.2914,-2.2902,-2.2918,-2.2929,-2.2924,-2.2987,-2.2972,-2.2979,-2.2999,-2.3061,-2.3064,-2.3067,-2.308,-2.3085,-2.3089,0,0,0,0,0,0,-2.2795,-2.282,-2.2818,-2.2861,-2.2879,-2.2901,-2.2921,-2.2919,-2.2941,-2.2939,-2.2945,-2.295,-2.2985,-2.2995,-2.2978,-2.3037,-2.3022,-2.3027,-2.3029,-2.3034,-2.3038,-2.3034,-2.2966,0,0,0,0,0,-2.2803,-2.2829,-2.2849,-2.2884,-2.2893,-2.2906,-2.2921,-2.2923,-2.2943,-2.295,-2.2964,-2.2982,-2.3005,-2.3021,-2.3043,-2.3083,-2.3087,-2.31,-2.3104,-2.3107,-2.311,-2.313,-2.3135,-2.3077,-2.3077,-2.3077,0,0,-2.2818,-2.2835,-2.2851,-2.2887,-2.2901,-2.2926,-2.2913,-2.294,-2.2958,-2.2954,-2.2988,-2.2998,-2.3019,-2.3056,-2.3073,-2.3065,-2.3127,-2.311,-2.3113,-2.3114,-2.3133,-2.3139,-2.3143,-2.3079,-2.3078,-2.3078,0,0,-2.2859,-2.2876,-2.2906,-2.2921,-2.2943,-2.2951,-2.2958,-2.298,-2.2986,-2.302,-2.3017,-2.3038,-2.3079,-2.3093,-2.3105,-2.3149,-2.3145,-2.3157,-2.3176,-2.3195,-2.32,-2.3204,-2.3218,-2.3223,-2.316,-2.316,-2.316,0,-2.2876,-2.2915,-2.2921,-2.2949,-2.2963,-2.2961,-2.299,-2.3004,-2.3033,-2.3042,-2.3034,-2.3083,-2.3097,-2.3136,-2.3147,-2.3158,-2.3164,-2.3154,-2.3199,-2.3203,-2.3207,-2.322,-2.3225,-2.3161,-2.3161,-2.3161,-2.3161,0,-2.2933,-2.2959,-2.2981,-2.3008,-2.3025,-2.3054,-2.3063,-2.3079,-2.308,-2.3088,-2.3121,-2.3137,-2.3162,-2.3172,-2.3173,-2.321,-2.3205,-2.3198,-2.3182,-2.3213,-2.3226,-2.3231,-2.3163,-2.3162,-2.3162,-2.3162,0,0,-2.2983,-2.3013,-2.302,-2.3032,-2.3055,-2.3076,-2.3103,-2.3127,-2.314,-2.3159,-2.3181,-2.3215,-2.3208,-2.3222,-2.3224,-2.3241,-2.3272,-2.3232,-2.3232,-2.3237,-2.3312,-2.3316,-2.3322,-2.327,-2.3271,-2.3272,-2.3309,0,-2.3025,-2.3074,-2.308,-2.3123,-2.3146,-2.3143,-2.3166,-2.3182,-2.319,-2.321,-2.3218,-2.3241,-2.3231,-2.3239,-2.3256,-2.3265,-2.3287,-2.3263,-2.3288,-2.3289,-2.3282,-2.3329,-2.3334,-2.3369,-2.3315,-2.3315,-2.3316,0,-2.3081,-2.3102,-2.3147,-2.3165,-2.3175,-2.3197,-2.3218,-2.3238,-2.3255,-2.3259,-2.3274,-2.3274,-2.33,-2.3284,-2.3319,-2.3302,-2.3313,-2.3319,-2.332,-2.3322,-2.3304,-2.333,-2.338,-2.3385,-2.3324,-2.3323,-2.3323,0,-2.3111,-2.315,-2.3182,-2.3192,-2.3215,-2.3229,-2.3239,-2.3255,-2.3269,-2.3288,-2.3296,-2.3317,-2.3329,-2.3345,-2.335,-2.3338,-2.3383,-2.3368,-2.3386,-2.3386,-2.3395,-2.3394,-2.3446,-2.3405,-2.3404,-2.3404,-2.3404,0,-2.3157,-2.3184,-2.3195,-2.3214,-2.3244,-2.3249,-2.3278,-2.3287,-2.3301,-2.3321,-2.332,-2.3338,-2.3344,-2.3363,-2.3367,-2.3394,-2.34,-2.3402,-2.3403,-2.3402,-2.3401,-2.3408,-2.3405,-2.3406,-2.3405,-2.3405,-2.3405,0,-2.3195,-2.3204,-2.3238,-2.3256,-2.3261,-2.3282,-2.3297,-2.3315,-2.3322,-2.3346,-2.3352,-2.3363,-2.3385,-2.3392,-2.3418,-2.3421,-2.3452,-2.3451,-2.3446,-2.3445,-2.3462,-2.346,-2.3519,-2.3527,-2.3481,-2.3482,-2.3482,0,-2.3223,-2.3244,-2.3264,-2.3277,-2.3288,-2.331,-2.3323,-2.3329,-2.3342,-2.3363,-2.3377,-2.3399,-2.3417,-2.3451,-2.3461,-2.348,-2.3479,-2.3498,-2.3482,-2.3479,-2.3477,-2.3475,-2.3476,-2.3501,-2.3502,-2.3502,-2.3502,0,-2.3271,-2.3274,-2.3294,-2.3315,-2.3332,-2.3348,-2.3365,-2.3375,-2.3382,-2.3398,-2.342,-2.3434,-2.346,-2.3481,-2.3501,-2.351,-2.3506,-2.3507,-2.3512,-2.3511,-2.3506,-2.3507,-2.3453,-2.3506,-2.3506,-2.3505,-2.3505,-2.3505,-2.3304,-2.3322,-2.3338,-2.336,-2.3372,-2.3387,-2.3404,-2.3412,-2.3431,-2.3454,-2.3455,-2.3479,-2.3494,-2.352,-2.3529,-2.3547,-2.3541,-2.3549,-2.355,-2.3552,-2.3552,-2.3505,-2.3551,-2.3551,-2.355,-2.355,-2.355,0,-2.3351,-2.3361,-2.3381,-2.3403,-2.3419,-2.3416,-2.3433,-2.3446,-2.3468,-2.3482,-2.3499,-2.3523,-2.3543,-2.3553,-2.3573,-2.3585,-2.3583,-2.3589,-2.3588,-2.3589,-2.3557,-2.355,-2.359,-2.359,-2.359,-2.359,-2.359,-2.359,-2.3377,-2.3405,-2.341,-2.3444,-2.3453,-2.3477,-2.3486,-2.3499,-2.351,-2.3538,-2.3554,-2.3561,-2.3573,-2.3593,-2.361,-2.3613,-2.3619,-2.3625,-2.3627,-2.3596,-2.3592,-2.3588,-2.3582,-2.3627,-2.3627,-2.3657,-2.3658,-2.3658]}]]